Pueblo, CO

4:24 AM MST on February 07, 2016 (GMT -0700)
Pueblo Memorial

Weather History for KPUB - December, 2012

Change the Weather History Date:

Sunday, December 9, 2012

  Actual Average Record
Temperature  
Mean Temperature 13 °F 30 °F  
Max Temperature 29 °F 46 °F 73 °F (1957)
Min Temperature -4 °F 15 °F -22 °F (1919)
Degree Days  
Heating Degree Days 52 35  
Month to date heating degree days 230 302  
Since 1 July heating degree days 1368 1583  
Cooling Degree Days 0 0  
Month to date cooling degree days 0 0  
Year to date cooling degree days 1322 897  
Moisture  
Dew Point 11 °F    
Average Humidity 77    
Maximum Humidity 100    
Minimum Humidity 53    
Precipitation  
Precipitation 0.19 in 0.01 in 0.35 in (1943)
Month to date precipitation 0.19 0.12  
Year to date precipitation 4.89 12.31  
Snow  
Snow 2.30 in 0.20 in 6.50 in (1943)
Month to date snowfall 2.3 1.6  
Since 1 July snowfall 3.9 7.6  
Snow Depth T in    
Sea Level Pressure  
Sea Level Pressure 30.17 in    
Wind  
Wind Speed 6 mph (NE)    
Max Wind Speed 15 mph    
Max Gust Speed 18 mph    
Visibility 4 miles    
Events Fog , Snow    
T = Trace of Precipitation, MM = Missing Value Source: NWS Daily Summary

Daily Weather History Graph

Daily Weather History Graph

Search for Another Location

Airport or City:

Trip Planner

Search our weather history database for the weather conditions in past years. The results will help you decide how hot, cold, wet, or windy it might be!

Date:

Astronomy

Dec. 09, 2012 Rise Set
Actual Time 7:03 AM MST 4:37 PM MST
Civil Twilight 6:34 AM MST 5:07 PM MST
Nautical Twilight 6:01 AM MST 5:40 PM MST
Astronomical Twilight 5:28 AM MST 6:12 PM MST
Moon 2:41 AM MST (12/9) 1:43 PM MST (12/9)
Length of Visible Light 10h 33m
Length of Day
9h 34m
Waning Crescent, 18% of the Moon is Illuminated
Dec 9
Waning Crescent
Dec 13
New
Dec 19
First Quarter
Dec 28
Full
Jan 4
Last Quarter

Hourly Weather History & Observations

Time (MST) Temp. Windchill Dew Point Humidity Pressure Visibility Wind Dir Wind Speed Gust Speed Precip Events Conditions
12:53 AM 28.0 °F 20.8 °F 15.1 °F 58% 29.92 in 10.0 mi ESE 6.9 mph - N/A   Overcast
1:53 AM 28.0 °F 19.3 °F 14.0 °F 56% 29.93 in 10.0 mi SE 9.2 mph - N/A   Overcast
2:53 AM 27.0 °F 16.7 °F 14.0 °F 58% 29.94 in 10.0 mi NE 11.5 mph - N/A   Overcast
3:53 AM 24.1 °F 13.7 °F 18.0 °F 77% 29.99 in 4.0 mi NNE 10.4 mph - 0.00 in Snow Light Snow
4:16 AM 23.0 °F 13.9 °F 19.4 °F 86% 29.99 in 2.5 mi NNE 8.1 mph - 0.00 in Snow Light Snow
4:50 AM 23.0 °F 18.4 °F 19.4 °F 86% 30.00 in 1.5 mi NNE 3.5 mph - 0.01 in Snow Light Snow
4:53 AM 23.0 °F 17.0 °F 19.0 °F 85% 30.04 in 1.5 mi North 4.6 mph - 0.01 in Snow Light Snow
5:53 AM 21.9 °F - 19.0 °F 89% 30.08 in 1.2 mi Calm Calm - 0.02 in Snow Light Snow
6:04 AM 21.2 °F 16.4 °F 19.4 °F 93% 30.03 in 0.8 mi North 3.5 mph - 0.00 in Snow Light Snow
6:19 AM 21.2 °F 16.4 °F 19.4 °F 93% 30.04 in 0.5 mi North 3.5 mph - 0.03 in Fog , Snow Snow
6:53 AM 21.9 °F - 19.9 °F 92% 30.11 in 0.5 mi Calm Calm - 0.06 in Fog , Snow Snow
7:13 AM 21.2 °F 16.4 °F 19.4 °F 93% 30.07 in 0.8 mi North 3.5 mph - 0.02 in Snow Light Snow
7:36 AM 21.2 °F - 19.4 °F 93% 30.08 in 0.2 mi Calm Calm - 0.04 in Fog , Snow Snow
7:48 AM 21.2 °F - 19.4 °F 93% 30.08 in 0.2 mi Calm Calm - 0.05 in Fog , Snow Snow
7:53 AM 21.0 °F - 19.0 °F 92% 30.14 in 0.2 mi Calm Calm - 0.05 in Fog , Snow Snow
8:01 AM 21.2 °F - 19.4 °F 93% 30.08 in 0.5 mi Calm Calm - 0.01 in Fog , Snow Snow
8:31 AM 21.2 °F 9.5 °F 19.4 °F 93% 30.10 in 0.5 mi ENE 11.5 mph - 0.03 in Fog , Snow Snow
8:46 AM 21.2 °F 10.1 °F 17.6 °F 86% 30.11 in 0.8 mi ENE 10.4 mph - 0.03 in Snow Light Snow
8:53 AM 19.9 °F 9.3 °F 17.1 °F 89% 30.19 in 1.0 mi ENE 9.2 mph - 0.03 in Snow Light Snow
9:10 AM 21.2 °F 9.5 °F 15.8 °F 80% 30.13 in 0.8 mi NE 11.5 mph 18.4 mph 0.01 in Snow Light Snow
9:39 AM 19.4 °F 11.5 °F 15.8 °F 86% 30.15 in 1.0 mi NE 5.8 mph - 0.02 in Snow Light Snow
9:49 AM 21.2 °F 16.4 °F 15.8 °F 80% 30.15 in 0.8 mi NE 3.5 mph - 0.02 in Snow Light Snow
9:53 AM 21.0 °F 12.4 °F 16.0 °F 81% 30.23 in 1.0 mi NNE 6.9 mph - 0.02 in Snow Light Snow
10:16 AM 19.4 °F 11.5 °F 15.8 °F 86% 30.15 in 3.0 mi ESE 5.8 mph - 0.00 in Snow Light Snow
10:23 AM 19.4 °F 9.5 °F 15.8 °F 86% 30.15 in 5.0 mi SE 8.1 mph - 0.00 in Snow Light Snow
10:53 AM 21.0 °F 9.9 °F 10.0 °F 63% 30.25 in 10.0 mi NE 10.4 mph - 0.00 in   Overcast
11:53 AM 21.0 °F 11.4 °F 10.0 °F 63% 30.24 in 10.0 mi ENE 8.1 mph - N/A   Overcast
12:53 PM 21.0 °F 9.3 °F 9.0 °F 60% 30.23 in 10.0 mi NE 11.5 mph - N/A   Overcast
1:53 PM 21.9 °F 11.0 °F 10.0 °F 60% 30.23 in 10.0 mi NE 10.4 mph - N/A   Overcast
2:53 PM 21.9 °F 10.4 °F 9.0 °F 58% 30.25 in 10.0 mi NNE 11.5 mph - N/A   Overcast
3:53 PM 21.0 °F 12.4 °F 8.1 °F 57% 30.28 in 10.0 mi NNE 6.9 mph - N/A   Overcast
4:53 PM 17.1 °F 10.0 °F 5.0 °F 59% 30.32 in 10.0 mi North 4.6 mph - N/A   Overcast
5:53 PM 10.0 °F -2.9 °F 5.0 °F 80% 30.37 in 10.0 mi WNW 9.2 mph - N/A   Partly Cloudy
6:53 PM 5.0 °F -5.6 °F 1.9 °F 87% 30.40 in 10.0 mi NNW 5.8 mph - N/A   Clear
7:53 PM 8.1 °F 1.4 °F 5.0 °F 87% 30.38 in 10.0 mi WSW 3.5 mph - N/A   Clear
8:53 PM 3.9 °F - 1.0 °F 88% 30.41 in 10.0 mi Calm Calm - N/A   Partly Cloudy
9:53 PM 1.9 °F - 1.0 °F 96% 30.38 in 8.0 mi Calm Calm - N/A   Clear
10:13 PM -2.2 °F - -4.0 °F 92% 30.17 in 1.5 mi Calm Calm - N/A   Clear
10:23 PM -2.2 °F - -5.8 °F 85% 30.17 in 2.0 mi Calm Calm - N/A   Partly Cloudy
10:36 PM -2.2 °F - -7.6 °F 78% 30.16 in 1.0 mi Calm Calm - N/A   Mist
10:53 PM -0.0 °F - -0.9 °F 96% 30.35 in 1.0 mi Calm Calm - N/A   Overcast
11:04 PM 3.2 °F - 1.4 °F 92% 30.14 in 0.5 mi Calm Calm - N/A Fog Light Freezing Fog
11:09 PM 3.2 °F - 1.4 °F 92% 30.14 in 0.2 mi Calm Calm - N/A Fog Light Freezing Fog
11:31 PM 5.0 °F - 3.2 °F 92% 30.13 in 0.2 mi Calm Calm - N/A Fog Light Freezing Fog
11:53 PM 3.9 °F - 1.0 °F 88% 30.31 in 0.2 mi Calm Calm - N/A Fog Light Freezing Fog